Regional Weather Roundup
Issued by NWS Wakefield, VA

Home | Current Version | Previous Version | Graphics & Text | Print | Product List | Glossary On
Versions: 1 2 3 4 5 6 7 8 9 10 11 12 13 14 15 16 17 18 19 20 21 22 23 24 25 26 27
000
ASUS41 KAKQ 221010
RWRAKQ

REGIONAL WEATHER ROUNDUP
NATIONAL WEATHER SERVICE WAKEFIELD VA
600 AM EDT TUE APR 22 2014

Note: "fair" indicates few or no clouds below 12,000 feet with no
significant weather and/or obstructions to visibility. * = Denotes
station may not report precipitation (e.g., rain,snow,etc.),
thunder or fog.

VAZ042-051-052>054-056-221100-
NORTHERN VIRGINIA

CITY           SKY/WX    TMP DP  RH WIND       PRES   REMARKS
WASH NATIONAL  MOCLDY    53  46  77 S9        29.78F
DULLES         CLOUDY    49  42  77 S3        29.76F
FORT BELVOIR   PTCLDY    49  46  88 SE2       29.78F
QUANTICO       PTCLDY    54  46  74 SW6       29.79F
FREDERICKSBRG* MOCLDY    52  46  82 SE3       29.77F
STAFFORD*      PTCLDY    50  48  95 CALM      29.82S
WARRENTON      PTCLDY    44  43  96 CALM      29.76F
CULPEPER*      PTCLDY    46  39  76 CALM      29.78S
MANASSAS*      PTCLDY    45  43  93 CALM      29.77F
LEESBURG*      PTCLDY    50  43  76 CALM      29.77F
WINCHESTER     PTCLDY    59  32  36 SW7       29.74F
$$

VAZ048-049-060>072-079>083-221100-
CENTRAL AND SOUTH CENTRAL VIRGINIA...AND NORTH CENTRAL NORTH CAROLINA

CITY           SKY/WX    TMP DP  RH WIND       PRES   REMARKS
RICHMOND       MOCLDY    50  45  83 S6        29.80F
CHESTERFIELD*  NOT AVBL
HANOVER        MOCLDY    50  45  83 S5        29.80F
TAPPAHANNOCK*  MOCLDY    49  46  90 S5        29.79F
CHARLOTTSVILLE CLEAR     53  33  46 SW5       29.76F
ORANGE*        PTCLDY    46  36  66 CALM      29.78F
LOUISA*        PTCLDY    52  43  71 CALM      29.77F
FARMVILLE*     PTCLDY    45  39  81 CALM      29.77S
SOUTH HILL*    PTCLDY    52  45  76 S5        29.86F
ROANOKE RAPIDS MOSUNNY   46  45  93 S3        29.83F
RALEIGH        MOCLDY    50  41  71 CALM      29.83F
$$

VAZ088>098-221100-
SOUTHEAST VIRGINIA

CITY           SKY/WX    TMP DP  RH WIND       PRES   REMARKS
NORFOLK        PTCLDY    45  43  93 SW8       29.83S
VIRGINIA BEACH MOCLDY    43  40  89 SW5       29.83S
NORFOLK NAVAL  MOCLDY    48  45  89 SW5       29.85R
WEST POINT*    MOCLDY    52  49  90 SE3       29.82F
NEWPORT NEWS   MOCLDY    50  46  86 SW5       29.83S
LANGLEY AFB    PTCLDY    48  48 100 SW5       29.83S
FORT EUSTIS    MOCLDY    51  49  93 S5        29.81F
WILLIAMSBURG*  MOCLDY    52  48  87 SE7       29.82F
FRANKLIN*      MOCLDY    48 N/A N/A S3        29.83F
WAKEFIELD      MOCLDY    50  46  86 S6        29.82F
$$

VAZ020-022-025-037-045-221100-
WESTERN AND SOUTHWEST VIRGINIA

CITY           SKY/WX    TMP DP  RH WIND       PRES   REMARKS
STAUNTON*      CLEAR     46  39  76 CALM      29.80F
HOT SPRINGS VA PTCLDY    55  39  54 W12       29.90F
LYNCHBURG      MOCLDY    51  36  56 CALM      29.80F
DANVILLE       PTCLDY    49  40  71 CALM      29.81F
MARTINSVILLE     N/A     47  44  88 CALM      29.84F
ROANOKE        PTCLDY    59  41  51 NW5       29.82F
BLACKSBURG     PTCLDY    48  45  87 CALM      29.87F
DUBLIN*        PTCLDY    52  44  76 CALM      29.86F
MARION*        MOCLDY    55  42  61 W6        29.91S
HILLSVILLE*    PTCLDY    57  37  47 SW3       29.90F
RICHLANDS*     PTSUNNY   62  44  52 SW7       29.88F
WISE*          CLOUDY    59  43  55 W5        29.90S
ABINGDON*      MOCLDY    55  46  71 CALM      29.89S
$$

MDZ021>025-VAZ099-100-221100-
SOUTHERN MARYLAND AND THE DELMARVA PENINSULA

CITY           SKY/WX    TMP DP  RH WIND       PRES   REMARKS
PATUXENT RIVER MOCLDY    49  46  90 S5        29.80S
BAY BRIDGE APT MOCLDY    52  50  93 S6        29.78F
LEONARDTOWN    PTCLDY    48  45  87 S3        29.81S
DOVER          PTCLDY    46  46 100 S5        29.75F
GEORGETOWN     PTCLDY    44  41  89 SW5       29.80F
EASTON         MOCLDY    50  50 100 SW5       29.82F
CAMBRIDGE      MOCLDY    46  45  93 SE3       29.79F
SALISBURY      PTCLDY    43  38  82 CALM      29.80F
OCEAN CITY     CLEAR     39  37  92 CALM      29.81F
WALLOPS ISLAND PTCLDY    46  43  89 SW3       29.82S
ACCOMACK*      MOCLDY    41  37  87 S3        29.81F
$$

NCZ012>017-030>032-221100-
EASTERN NORTH CAROLINA

CITY           SKY/WX    TMP DP  RH WIND       PRES   REMARKS
ELIZABETH CITY PTCLDY    44  43  96 SW3       29.85S
AHOSKIE*       PTCLDY    42  41  96 CALM      29.84F
EDENTON*       PTCLDY    45  44  95 CALM      29.85S
CURRITUCK*     PTCLDY    43  41  93 SW3       29.85S
KILL DEVIL HLS PTCLDY    46  46  98 CALM      29.83S FOG
MANTEO         PTCLDY    42  42  99 CALM      29.85S
CAPE HATTERAS  PTCLDY    48  48 100 N3        29.85S FOG
GOLDSBORO      PTCLDY    45  44  98 E5        29.83F
WASHINGTON     CLEAR     45  41  85 CALM      29.86F
GREENVILLE     PTCLDY    48  48 100 CALM      29.88S
NEW BERN       CLEAR     45  42  89 CALM      29.88S
WILMINGTON     CLEAR     53  50  89 CALM      29.87F
$$

VAZ048-221100-
ELSEWHERE

CITY           SKY/WX    TMP DP  RH WIND       PRES   REMARKS
HARRISBURG PA  MOCLDY    53  40  61 E3        29.74F
BALTIMORE      CLOUDY    48  44  86 CALM      29.76F
ANNAPOLIS      CLOUDY    52  48  86 S6        29.77F
ANDREWS AFB    MOCLDY    49  46  89 S7        29.77F
WILMINGTON DE  PTCLDY    48  45  89 SW3       29.79F
PHILADELPHIA   MOCLDY    48  43  82 S6        29.79F
WILDWOOD NJ*   CLEAR     45  39  81 CALM      29.81S
ATLANTIC CITY  PTCLDY    38  36  92 CALM      29.79F
HENDERSON NC   PTCLDY    51  38  61 S6        29.81F
GREENSBORO     MOCLDY    57  41  55 W7        29.82F
ROCKY MOUNT    PTCLDY    49  47  93 SW3       29.85S
FAYETTEVILLE   CLEAR     49  46  90 SW6       29.84F
CHARLOTTE      CLOUDY    55  46  71 CALM      29.86S
$$

VAZ100-221100-
MARINE

STATION/POSITION TIME  TEMP    WIND        PRES    WAVE   SWELL
                       AIR SEA DIR/SP/G            HT/PER HT/PER
                 (UTC) (F)     (DEG/KT/KT) (MB)    (FT/S) (FT/S)
44066 TX TWR #4  1000   46 45  250/  4/  4 1009.1F   5/ 8   5/ 8
CAPE MAY NJ      1000   49 55  200/  4/  6 1008.9R
LEWES DE         1000   48 49  190/  3/  4 1008.5S
15NM E FENWICK I 1000   47 46              1009.3F   5/ 9
OCEAN-CITY-INLET 1000   46 48  190/  2/  2 1009.0F
WACHAPREAGUE VA  1000   46 56  240/  2/  2 1009.3S
THOMAS POINT MD  1000   53 54  180/ 13/ 14 1008.8F
GOOSES REEF MD   1000   52     190/ 10/ 10   N/A
COVE POINT MD    1000   51     190/  9/ 12 1008.7F
SOLOMONS ISLAND  1000      54                N/A
BISHOPS HEAD MD  1000   53 56  180/  7/  8 1008.7F
PINEY POINT MD   1000          210/  6/  8   N/A
POTOMAC MD       1000   52     190/  8/ 10 1008.5S
CAMBRIDGE MD     1000   50 56  180/  4/  6 1008.4F
LEWISETTA VA     1000   51 57  230/  5/  7 1008.9R
RAPPAHANNOCK LGT 1000          160/  6/  7 1009.8S
STINGRAY PT      1000   52     210/  6/  8 1009.5F
YORK RVR RNG VA  1000   52     210/  7/  8 1008.9F
YORKTOWN VA      1000   50 55  220/  5/  7 1009.5S
JAMESTOWN VA     1000   50     150/  2/  4   N/A
DOMINION TERM VA 1000   51     210/  5/  6 1010.0R
KIPTOPEKE VA     1000      54  170/  2/  3   N/A
CHES BAY BRIDGE  1000   50 52  190/  4/  5 1009.7S
CAPE HENRY VA    1000   50     180/  4/  6   N/A
CHESAPEAKE LGHT  0900   48      CALM  /  6 1011.0F
WILLOUBY STN VA  1000   51     220/  3/  4 1009.1R
S CRANEY ISL VA  1000          180/  6/  8 1010.2R
CAPE HENRY BUOY  1000      46                N/A     4/ 9   2/11
1ST LANDING BUOY 1000      47                N/A     4/10   2/11
64NM E OF VA BCH 1000   47 48  340/  4/  6 1010.0F   6/10   5/10
DUCK PIER NC     1000   49 49  210/  1/  2 1009.4S
44100 DUCK FRF   1000      48                N/A     5/11   2/11
44056 DUCK FRF   1000      49                N/A     4/ 9   2/11
OREGON INLET NC  1000   47 52   CALM  /  1 1010.5F
HATTERAS NC      1000   53 54  330/  3/  4 1011.0S
DIAMOND SHLS NC  1000   60 76  360/  6/  8 1010.8R   6/11   7/11
CAPE LOOKOUT NC  0900   55     300/  3/  3 1011.2F
FRYING PAN SHLS  1000   66 66  250/  8/  8 1011.4F   4/10   3/10
$$



USA.gov is the U.S. government's official web portal to all federal, state and local government web resources and services.